Airfield :
LOGIN :

Register | Disclaimer

   EN    FR    IT 

 










Legend :    VFR   Marginal VFR   IFR   Intensive IFR   Very Intensive IFR
Visi :
Ceiling :
>= 8 km
>= 3000ft
5 to 8 km
1000 to 3000 ft
1500m to 5 km
500 to 1000 ft
800 to 1500m
200 to 500 ft
< 800m
< 200 ft
Symbols :   Thunderstorms  Fog  Heavy snow  Heavy precipitations  Wind > 20 kt
SIGMETs :     Misc.  Thunderstorms  Icing  Turbulence  Mountain Waves  Volcanic Ashes







- Airport Elevation : 1475 ft


LSZC - Buochs Stans

CURRENT METAR :
  • 160020Z AUTO 26004KT CAVOK 16/13 Q1020

EXPIRED METARs :
  • 152350Z AUTO 27004KT CAVOK 16/13 Q1020
  • 152320Z AUTO 23004KT CAVOK 16/13 Q1020
  • 152250Z AUTO 22004KT CAVOK 17/13 Q1020
  • 152220Z AUTO 25003KT 190V280 CAVOK 18/13 Q1020
  • 152150Z AUTO 27004KT CAVOK 17/13 Q1020

Expired Forecast.
No reported NOTAMs for that airfield.



MET'MAP, your aeronautical weather chart ! - Copyright ORBIFLY December 2007 - Disclaimer

ORBIFLY MET'MAP TEAM :

Programming & Development : Alexandra Zaïnal
Concept & Development : Baudouin d'Aumeries
Co-Development & Prog : Marc-Olivier Méhu
Technical & hardware support : Manuel Goepfert

Contact : metmap@orbifly.com




SOURCES & CREDITS :

   NOAA